When you browse on this site, cookies collect data to enhance your experience and personalize the content and advertising you see.
Visit our Privacy Policy to learn more. By continuing to use the site, you agree to this use of cookies and data.
  • Em Portugal
  • Lista de países
  • Para 7 dias
  • Temperatura da água
  • Mapas de satélite
  • Mapa do tempo
  • Widgets de tempo
  • user-avatar
    Iniciar Sessão

    Previsão horária em La Paz

    Hoje, 20 Novembro, Terça-feira

    Tempo Temperatura Precipitação Vento Pressão Humidade
    00:00 +8°C° 0.8 mm 1 m/s 475 mmHg 86%
    01:00 +7°C° 0.8 mm 0 m/s 475 mmHg 85%
    02:00 +7°C° 0.2 mm 0 m/s 474 mmHg 86%
    03:00 +6°C° 0.2 mm 0 m/s 474 mmHg 87%
    04:00 +6°C° 0.2 mm 0 m/s 474 mmHg 87%
    05:00 +8°C° 0 mm 1 m/s 475 mmHg 84%
    06:00 +8°C° 0 mm 1 m/s 475 mmHg 82%
    07:00 +9°C° 0 mm 1 m/s 476 mmHg 79%
    08:00 +10°C° 0 mm 1 m/s 476 mmHg 74%
    09:00 +11°C° 0 mm 1 m/s 477 mmHg 69%
    10:00 +12°C° 0 mm 2 m/s 477 mmHg 64%
    11:00 +13°C° 0.2 mm 2 m/s 477 mmHg 64%
    12:00 +13°C° 0.2 mm 2 m/s 477 mmHg 63%
    13:00 +13°C° 0.2 mm 2 m/s 476 mmHg 63%
    14:00 +13°C° 0.2 mm 2 m/s 476 mmHg 65%
    15:00 +12°C° 0.2 mm 3 m/s 476 mmHg 66%
    16:00 +12°C° 0.2 mm 3 m/s 475 mmHg 67%
    17:00 +11°C° 0.1 mm 3 m/s 475 mmHg 73%
    18:00 +10°C° 0.1 mm 3 m/s 475 mmHg 78%
    19:00 +9°C° 0.1 mm 3 m/s 475 mmHg 84%
    20:00 +8°C° 0.1 mm 3 m/s 475 mmHg 84%
    21:00 +8°C° 0.1 mm 2 m/s 476 mmHg 85%
    22:00 +8°C° 0.1 mm 2 m/s 476 mmHg 86%
    23:00 +8°C° 0.1 mm 2 m/s 476 mmHg 85%

    Amanhã, 21 Novembro, Quarta-feira

    Tempo Temperatura Precipitação Vento Pressão Humidade
    00:00 +8°C° 0.1 mm 1 m/s 475 mmHg 84%
    01:00 +8°C° 0.1 mm 1 m/s 475 mmHg 84%
    02:00 +8°C° 0.1 mm 1 m/s 475 mmHg 84%
    03:00 +7°C° 0.1 mm 1 m/s 474 mmHg 84%
    04:00 +7°C° 0.1 mm 1 m/s 474 mmHg 85%
    05:00 +8°C° 0 mm 1 m/s 475 mmHg 80%
    06:00 +9°C° 0 mm 1 m/s 476 mmHg 76%
    07:00 +10°C° 0 mm 1 m/s 477 mmHg 72%
    08:00 +10°C° 0.1 mm 2 m/s 477 mmHg 67%
    09:00 +12°C° 0.1 mm 2 m/s 478 mmHg 62%
    10:00 +13°C° 0.1 mm 3 m/s 479 mmHg 57%
    11:00 +13°C° 0.3 mm 3 m/s 478 mmHg 58%
    12:00 +13°C° 0.3 mm 3 m/s 478 mmHg 58%
    13:00 +13°C° 0.3 mm 3 m/s 477 mmHg 59%
    14:00 +13°C° 0.4 mm 3 m/s 476 mmHg 61%
    15:00 +13°C° 0.4 mm 3 m/s 476 mmHg 63%
    16:00 +12°C° 0.4 mm 3 m/s 475 mmHg 65%
    17:00 +11°C° 0.2 mm 3 m/s 475 mmHg 71%
    18:00 +10°C° 0.2 mm 3 m/s 475 mmHg 77%
    19:00 +9°C° 0.2 mm 3 m/s 475 mmHg 82%
    20:00 +9°C° 0.4 mm 3 m/s 475 mmHg 84%
    21:00 +9°C° 0.4 mm 2 m/s 475 mmHg 85%
    22:00 +8°C° 0.4 mm 2 m/s 476 mmHg 87%
    23:00 +8°C° 0.6 mm 2 m/s 475 mmHg 87%

    Depois de amanhã, 22 Novembro, Quinta-feira

    Tempo Temperatura Precipitação Vento Pressão Humidade
    00:00 +9°C° 0.6 mm 1 m/s 475 mmHg 86%
    01:00 +8°C° 0.6 mm 1 m/s 474 mmHg 86%
    02:00 +8°C° 0.5 mm 1 m/s 474 mmHg 85%
    03:00 +8°C° 0.5 mm 1 m/s 474 mmHg 83%
    04:00 +8°C° 0.5 mm 1 m/s 474 mmHg 82%
    05:00 +9°C° 0.2 mm 1 m/s 474 mmHg 78%
    06:00 +10°C° 0.2 mm 1 m/s 475 mmHg 74%
    07:00 +10°C° 0.2 mm 1 m/s 475 mmHg 70%
    08:00 +11°C° 0 mm 1 m/s 476 mmHg 64%
    09:00 +13°C° 0 mm 1 m/s 477 mmHg 59%
    10:00 +14°C° 0 mm 2 m/s 477 mmHg 53%
    11:00 +15°C° 0.3 mm 2 m/s 477 mmHg 53%
    12:00 +15°C° 0.3 mm 2 m/s 477 mmHg 52%
    13:00 +16°C° 0.3 mm 2 m/s 477 mmHg 52%
    14:00 +15°C° 0.3 mm 2 m/s 476 mmHg 54%
    15:00 +15°C° 0.3 mm 2 m/s 475 mmHg 57%
    16:00 +15°C° 0.3 mm 2 m/s 475 mmHg 59%
    17:00 +13°C° 0.4 mm 2 m/s 474 mmHg 66%
    18:00 +11°C° 0.4 mm 3 m/s 474 mmHg 73%
    19:00 +10°C° 0.4 mm 3 m/s 474 mmHg 79%
    20:00 +10°C° 0.2 mm 2 m/s 474 mmHg 80%
    21:00 +9°C° 0.2 mm 2 m/s 475 mmHg 80%
    22:00 +10°C° 0.2 mm 1 m/s 475 mmHg 81%
    23:00 +10°C° 0 mm 1 m/s 474 mmHg 82%

    23 Novembro, Sexta-feira

    Tempo Temperatura Precipitação Vento Pressão Humidade
    00:00 +9°C° 0 mm 1 m/s 474 mmHg 83%
    01:00 +9°C° 0 mm 1 m/s 473 mmHg 84%
    02:00 +9°C° 0 mm 1 m/s 473 mmHg 85%
    03:00 +8°C° 0 mm 1 m/s 473 mmHg 85%
    04:00 +8°C° 0 mm 1 m/s 473 mmHg 86%
    05:00 +9°C° 0 mm 1 m/s 473 mmHg 80%
    06:00 +10°C° 0 mm 1 m/s 474 mmHg 74%
    07:00 +11°C° 0 mm 1 m/s 475 mmHg 69%
    08:00 +12°C° 0 mm 1 m/s 476 mmHg 62%
    09:00 +13°C° 0 mm 2 m/s 476 mmHg 55%
    10:00 +15°C° 0 mm 2 m/s 477 mmHg 49%
    11:00 +15°C° 0.6 mm 2 m/s 477 mmHg 49%
    12:00 +16°C° 0.6 mm 2 m/s 476 mmHg 49%
    13:00 +16°C° 0.6 mm 3 m/s 476 mmHg 50%
    14:00 +14°C° 0.7 mm 3 m/s 475 mmHg 52%
    15:00 +14°C° 0.7 mm 3 m/s 475 mmHg 55%
    16:00 +14°C° 0.7 mm 3 m/s 474 mmHg 58%
    17:00 +12°C° 0.5 mm 3 m/s 474 mmHg 66%
    18:00 +11°C° 0.5 mm 3 m/s 474 mmHg 73%
    19:00 +10°C° 0.5 mm 3 m/s 474 mmHg 80%
    20:00 +10°C° 0.2 mm 3 m/s 474 mmHg 81%
    21:00 +9°C° 0.2 mm 3 m/s 475 mmHg 82%
    22:00 +9°C° 0.2 mm 2 m/s 475 mmHg 82%
    23:00 +9°C° 0.1 mm 2 m/s 474 mmHg 83%

    24 Novembro, Sábado

    Tempo Temperatura Precipitação Vento Pressão Humidade
    00:00 +8°C° 0.1 mm 2 m/s 474 mmHg 84%
    01:00 +9°C° 0.1 mm 1 m/s 474 mmHg 84%
    02:00 +9°C° 0.1 mm 1 m/s 473 mmHg 85%
    03:00 +9°C° 0.1 mm 1 m/s 473 mmHg 86%
    04:00 +8°C° 0.1 mm 1 m/s 473 mmHg 87%
    05:00 +9°C° 0.1 mm 1 m/s 474 mmHg 85%
    06:00 +8°C° 0.1 mm 2 m/s 474 mmHg 83%
    07:00 +8°C° 0.1 mm 2 m/s 475 mmHg 81%
    08:00 +9°C° 0.2 mm 2 m/s 475 mmHg 77%
    09:00 +10°C° 0.2 mm 2 m/s 476 mmHg 73%
    10:00 +12°C° 0.2 mm 2 m/s 476 mmHg 69%
    11:00 +11°C° 0.2 mm 3 m/s 476 mmHg 69%
    12:00 +11°C° 0.2 mm 3 m/s 475 mmHg 70%
    13:00 +11°C° 0.2 mm 3 m/s 474 mmHg 70%
    14:00 +10°C° 0.2 mm 3 m/s 474 mmHg 72%
    15:00 +10°C° 0.2 mm 3 m/s 474 mmHg 74%
    16:00 +10°C° 0.2 mm 3 m/s 473 mmHg 75%
    17:00 +9°C° 0.1 mm 3 m/s 473 mmHg 78%
    18:00 +9°C° 0.1 mm 3 m/s 473 mmHg 81%
    19:00 +8°C° 0.1 mm 3 m/s 474 mmHg 84%
    20:00 +8°C° 0 mm 3 m/s 474 mmHg 85%
    21:00 +8°C° 0 mm 2 m/s 474 mmHg 86%
    22:00 +7°C° 0 mm 2 m/s 474 mmHg 86%
    23:00 +7°C° 0 mm 2 m/s 474 mmHg 87%

    25 Novembro, Domingo

    Tempo Temperatura Precipitação Vento Pressão Humidade
    00:00 +7°C° 0 mm 2 m/s 473 mmHg 87%
    01:00 +8°C° 0 mm 1 m/s 473 mmHg 87%
    02:00 +7°C° 0.1 mm 1 m/s 473 mmHg 87%
    03:00 +7°C° 0.1 mm 1 m/s 473 mmHg 86%
    04:00 +7°C° 0.1 mm 1 m/s 473 mmHg 86%
    05:00 +8°C° 0.2 mm 1 m/s 474 mmHg 84%
    06:00 +8°C° 0.2 mm 1 m/s 474 mmHg 81%
    07:00 +9°C° 0.2 mm 1 m/s 475 mmHg 79%
    08:00 +9°C° 0.4 mm 2 m/s 475 mmHg 74%
    09:00 +10°C° 0.4 mm 2 m/s 476 mmHg 69%
    10:00 +11°C° 0.4 mm 3 m/s 476 mmHg 64%
    11:00 +11°C° 0.6 mm 3 m/s 476 mmHg 64%
    12:00 +11°C° 0.6 mm 3 m/s 475 mmHg 64%
    13:00 +12°C° 0.6 mm 3 m/s 475 mmHg 64%
    14:00 +11°C° 0.6 mm 3 m/s 474 mmHg 66%
    15:00 +11°C° 0.6 mm 3 m/s 474 mmHg 68%
    16:00 +10°C° 0.6 mm 3 m/s 473 mmHg 71%
    17:00 +10°C° 0.2 mm 3 m/s 473 mmHg 75%
    18:00 +9°C° 0.2 mm 3 m/s 473 mmHg 79%
    19:00 +8°C° 0.2 mm 3 m/s 473 mmHg 84%
    20:00 +7°C° 0 mm 3 m/s 473 mmHg 84%
    21:00 +7°C° 0 mm 2 m/s 473 mmHg 84%
    22:00 +7°C° 0 mm 2 m/s 474 mmHg 84%
    23:00 +8°C° 0.1 mm 1 m/s 473 mmHg 84%
    Mostrar mais